Chetco River@Brookings

Start Stop
DateFlow
CFS
Gauge
Feet
DateFlow
CFS
Gauge
Feet
09/27/2022 02:3096-1.15
09/27/2022 01:3094-1.16
09/27/2022 00:3096-1.15
09/26/2022 22:3096-1.15
09/26/2022 21:3094-1.16
09/26/2022 20:3096-1.15
09/26/2022 15:3096-1.15
09/26/2022 14:3098-1.14
09/26/2022 09:3098-1.14
09/26/2022 08:3096-1.15
09/26/2022 06:3096-1.15
09/26/2022 05:3098-1.14
09/26/2022 04:3098-1.14
09/26/2022 03:3096-1.15
09/26/2022 02:3098-1.14
09/25/2022 17:3098-1.14
09/25/2022 16:30100-1.13
09/25/2022 15:3098-1.14
09/25/2022 14:30100-1.13
09/25/2022 12:30100-1.13
09/25/2022 11:30102-1.12
09/25/2022 10:30102-1.12
09/25/2022 09:30100-1.13
09/24/2022 22:30100-1.13
09/24/2022 21:30102-1.12
09/24/2022 14:30102-1.12
09/24/2022 13:30104-1.11
09/24/2022 09:30104-1.11
09/24/2022 08:30102-1.12
09/24/2022 07:30104-1.11
09/24/2022 06:30104-1.11
09/24/2022 05:30102-1.12
09/24/2022 04:30104-1.11
09/23/2022 21:30104-1.11
09/23/2022 20:30106-1.1
09/23/2022 12:30106-1.1
09/23/2022 11:30109-1.09
09/23/2022 10:30106-1.1
09/22/2022 17:30106-1.1
09/22/2022 16:30109-1.09
09/22/2022 11:30109-1.09
09/22/2022 10:30111-1.08
09/22/2022 09:30111-1.08
09/22/2022 08:30109-1.09
09/22/2022 05:30109-1.09
09/22/2022 04:30111-1.08
09/21/2022 23:30111-1.08
09/21/2022 22:30113-1.07
09/21/2022 21:30111-1.08
09/21/2022 18:30111-1.08
09/21/2022 17:30109-1.09
09/21/2022 12:30109-1.09
09/21/2022 11:30111-1.08
09/21/2022 10:30109-1.09
09/21/2022 09:30106-1.1
09/21/2022 06:30106-1.1
09/21/2022 05:30104-1.11
09/21/2022 04:30106-1.1
09/21/2022 01:30106-1.1
09/21/2022 00:30104-1.11
09/20/2022 23:30106-1.1
09/20/2022 15:30106-1.1
09/20/2022 14:30109-1.09
09/19/2022 18:30109-1.09
09/19/2022 17:30111-1.08
09/19/2022 07:30111-1.08
09/19/2022 06:30109-1.09
09/19/2022 01:30109-1.09
09/19/2022 00:30106-1.1
09/18/2022 23:30109-1.09
09/18/2022 22:30106-1.1
09/18/2022 21:30106-1.1
09/18/2022 20:30109-1.09
09/18/2022 19:30106-1.1
09/18/2022 11:30106-1.1
09/18/2022 10:30104-1.11
09/18/2022 07:30104-1.11
09/18/2022 06:30102-1.12
09/17/2022 17:30102-1.12
09/17/2022 16:30100-1.13
09/17/2022 14:30100-1.13
09/17/2022 13:30102-1.12
09/17/2022 11:30102-1.12
09/17/2022 10:30100-1.13
09/17/2022 09:30102-1.12
09/17/2022 08:30100-1.13
09/17/2022 07:30100-1.13
09/17/2022 06:30102-1.12
09/17/2022 04:30102-1.12
09/17/2022 03:30100-1.13
09/17/2022 02:30100-1.13
09/17/2022 01:30102-1.12
09/17/2022 00:30102-1.12
09/16/2022 23:30100-1.13
09/16/2022 22:30100-1.13
09/16/2022 21:30102-1.12
09/16/2022 12:30102-1.12
09/16/2022 11:30104-1.11
09/16/2022 10:30104-1.11
09/16/2022 09:30102-1.12
09/15/2022 14:30102-1.12
09/15/2022 13:30104-1.11
09/15/2022 09:30104-1.11
09/15/2022 08:30102-1.12
09/14/2022 23:30102-1.12
09/14/2022 22:30100-1.13
09/14/2022 21:30100-1.13
09/14/2022 20:30102-1.12
09/14/2022 13:30102-1.12
09/14/2022 12:30104-1.11
09/14/2022 09:30104-1.11
09/14/2022 08:30102-1.12
09/13/2022 18:30102-1.12
09/13/2022 17:30104-1.11
09/13/2022 08:30104-1.11
09/13/2022 07:30102-1.12
09/13/2022 05:30102-1.12
09/13/2022 04:30104-1.11
09/13/2022 02:30104-1.11
09/13/2022 01:30102-1.12
09/13/2022 00:30102-1.12
09/12/2022 23:30104-1.11
09/12/2022 19:30104-1.11
09/12/2022 18:30102-1.12
09/12/2022 17:30104-1.11
09/12/2022 07:30104-1.11
09/12/2022 06:30102-1.12
09/11/2022 23:30102-1.12
09/11/2022 22:30100-1.13
09/11/2022 11:30100-1.13
09/11/2022 10:30102-1.12
09/11/2022 09:30100-1.13
09/11/2022 01:30100-1.13
09/11/2022 00:3098-1.14
09/10/2022 21:3098-1.14
09/10/2022 20:30100-1.13
09/10/2022 09:30100-1.13
09/10/2022 08:3098-1.14
09/10/2022 06:3098-1.14
09/10/2022 05:30100-1.13
09/10/2022 04:3098-1.14
09/09/2022 21:3098-1.14
09/09/2022 20:30100-1.13
09/09/2022 17:30100-1.13
09/09/2022 16:30102-1.12
09/09/2022 15:30100-1.13
09/09/2022 14:30102-1.12
09/09/2022 13:30100-1.13
09/09/2022 12:30102-1.12
09/09/2022 10:30102-1.12
09/09/2022 09:30100-1.13
09/08/2022 22:30100-1.13
09/08/2022 21:30102-1.12
09/08/2022 20:30100-1.13
09/08/2022 19:30102-1.12
09/08/2022 16:30102-1.12
09/08/2022 15:30104-1.11
09/08/2022 14:30104-1.11
09/08/2022 13:30106-1.1
09/08/2022 12:30104-1.11
09/08/2022 11:30106-1.1
09/08/2022 09:30106-1.1
09/08/2022 08:30104-1.11
09/08/2022 05:30104-1.11
09/08/2022 04:30106-1.1
09/08/2022 03:30106-1.1
09/08/2022 02:30104-1.11
09/08/2022 01:30106-1.1
09/08/2022 00:30104-1.11
09/07/2022 23:30104-1.11
09/07/2022 22:30106-1.1
09/07/2022 21:30104-1.11
09/07/2022 20:30106-1.1
09/07/2022 16:30106-1.1
09/07/2022 15:30109-1.09
09/07/2022 14:30109-1.09
09/07/2022 13:30106-1.1
09/07/2022 12:30109-1.09
09/06/2022 21:30109-1.09
09/06/2022 20:30111-1.08
09/06/2022 08:30111-1.08
09/06/2022 07:30109-1.09
09/06/2022 04:30109-1.09
09/06/2022 03:30111-1.08
09/06/2022 01:30111-1.08
09/06/2022 00:30109-1.09
09/05/2022 23:30111-1.08
09/05/2022 20:30111-1.08
09/05/2022 19:30113-1.07
09/05/2022 18:30111-1.08
09/05/2022 17:30113-1.07
09/05/2022 11:30113-1.07
09/05/2022 10:30115-1.06
09/05/2022 09:30113-1.07
09/04/2022 18:30113-1.07
09/04/2022 17:30115-1.06
09/04/2022 16:30115-1.06
09/04/2022 15:30113-1.07
09/04/2022 13:30113-1.07
09/04/2022 12:30115-1.06
09/04/2022 11:30113-1.07
09/04/2022 10:30115-1.06
09/04/2022 09:30115-1.06
09/04/2022 08:30113-1.07
09/03/2022 16:30113-1.07
09/03/2022 15:30115-1.06
09/03/2022 12:30115-1.06
09/03/2022 11:30117-1.05
09/03/2022 10:30117-1.05
09/03/2022 09:30115-1.06
09/03/2022 08:30113-1.07
09/03/2022 07:30113-1.07
09/03/2022 06:30115-1.06
09/03/2022 05:30113-1.07
09/03/2022 03:30113-1.07
09/03/2022 02:30115-1.06
09/03/2022 01:30113-1.07
09/03/2022 00:30113-1.07
09/02/2022 23:30115-1.06
09/02/2022 22:30113-1.07
09/02/2022 16:30113-1.07
09/02/2022 15:30115-1.06
09/02/2022 14:30113-1.07
09/02/2022 13:30115-1.06
09/02/2022 10:30115-1.06
09/02/2022 09:30113-1.07
09/02/2022 08:30115-1.06
09/01/2022 13:30115-1.06
09/01/2022 12:30117-1.05
09/01/2022 10:30117-1.05
09/01/2022 09:30115-1.06
09/01/2022 08:30117-1.05
09/01/2022 07:30115-1.06
09/01/2022 06:30115-1.06
09/01/2022 05:30117-1.05
09/01/2022 02:30117-1.05
09/01/2022 01:30115-1.06
09/01/2022 00:30115-1.06
08/31/2022 23:30117-1.05
08/31/2022 20:30117-1.05
08/31/2022 19:30115-1.06
08/31/2022 18:30117-1.05
08/31/2022 01:30117-1.05
08/30/2022 16:30117-1.05
08/30/2022 15:30119-1.04
08/30/2022 09:30119-1.04
08/30/2022 08:30117-1.05
08/30/2022 07:30119-1.04
08/30/2022 01:30119-1.04
08/30/2022 00:30117-1.05
08/29/2022 22:30117-1.05
08/29/2022 21:30119-1.04
08/29/2022 09:30119-1.04
08/29/2022 08:30117-1.05
08/29/2022 07:30117-1.05
08/29/2022 06:30119-1.04
08/28/2022 21:30119-1.04
08/28/2022 20:30117-1.05
08/28/2022 19:30119-1.04
08/28/2022 16:30119-1.04
08/28/2022 15:30121-1.03
08/28/2022 14:30121-1.03
08/28/2022 13:30119-1.04
08/28/2022 10:30119-1.04
08/28/2022 09:30121-1.03
08/28/2022 08:30119-1.04

Start Stop